Radiation Dose at Monitoring Post of Fukushima Daini Nuclear Power Station
Date,Time,MP-1(microSv/h),MP-2(microSv/h),MP-3(microSv/h),MP-4(microSv/h),MP-5(microSv/h),MP-6(microSv/h),MP-7(microSv/h),Wind Direction,Wind Velocity(m/s),Rain
2022/07/17,00:00,0.147,0.138,0.214,0.209,0.210,0.116,0.074,south,4.9,No
2022/07/17,00:10,0.146,0.137,0.216,0.207,0.211,0.116,0.075,south,4.8,No
2022/07/17,00:20,0.145,0.137,0.216,0.210,0.213,0.115,0.075,south,4.6,No
2022/07/17,00:30,0.147,0.137,0.214,0.209,0.210,0.117,0.075,south-southwest,3.5,No
2022/07/17,00:40,0.146,0.138,0.217,0.207,0.210,0.116,0.075,southwest,4.0,Yes
2022/07/17,00:50,0.146,0.136,0.215,0.210,0.214,0.116,0.075,south-southwest,2.9,No
2022/07/17,01:00,0.147,0.138,0.216,0.209,0.212,0.116,0.074,south-southwest,3.2,No
2022/07/17,01:10,0.147,0.138,0.217,0.207,0.210,0.116,0.075,south,3.4,No
2022/07/17,01:20,0.146,0.137,0.216,0.211,0.213,0.116,0.075,south-southeast,4.9,No
2022/07/17,01:30,0.147,0.138,0.215,0.209,0.211,0.116,0.075,south-southeast,5.9,Yes
2022/07/17,01:40,0.147,0.137,0.217,0.208,0.210,0.117,0.075,south-southeast,5.8,Yes
2022/07/17,01:50,0.146,0.138,0.215,0.210,0.214,0.115,0.076,south,5.5,Yes
2022/07/17,02:00,0.146,0.137,0.216,0.208,0.212,0.116,0.075,south-southeast,5.1,Yes
2022/07/17,02:10,0.147,0.136,0.216,0.207,0.210,0.116,0.076,south,4.8,Yes
2022/07/17,02:20,0.146,0.137,0.214,0.210,0.213,0.116,0.075,south,4.9,Yes
2022/07/17,02:30,0.146,0.137,0.216,0.209,0.212,0.116,0.075,south,5.7,Yes
2022/07/17,02:40,0.147,0.137,0.216,0.207,0.210,0.117,0.076,south,5.5,Yes
2022/07/17,02:50,0.146,0.138,0.214,0.210,0.213,0.117,0.076,south,4.1,Yes
2022/07/17,03:00,0.147,0.138,0.217,0.209,0.212,0.116,0.076,south,3.9,Yes
2022/07/17,03:10,0.148,0.138,0.216,0.209,0.212,0.118,0.076,south,4.1,Yes
2022/07/17,03:20,0.148,0.139,0.215,0.210,0.214,0.117,0.075,south,4.0,Yes
2022/07/17,03:30,0.148,0.139,0.218,0.208,0.212,0.117,0.076,south,3.9,Yes
2022/07/17,03:40,0.148,0.138,0.216,0.209,0.211,0.118,0.076,south-southeast,4.8,Yes
2022/07/17,03:50,0.147,0.139,0.217,0.211,0.214,0.118,0.077,south-southeast,4.9,No
2022/07/17,04:00,0.148,0.137,0.216,0.207,0.210,0.117,0.075,south-southeast,5.9,No
2022/07/17,04:10,0.147,0.138,0.215,0.209,0.211,0.117,0.075,south-southeast,5.1,No
2022/07/17,04:20,0.146,0.138,0.216,0.209,0.212,0.116,0.075,south-southeast,5.0,Yes
2022/07/17,04:30,0.147,0.137,0.216,0.207,0.210,0.117,0.076,south,5.1,Yes
2022/07/17,04:40,0.148,0.138,0.214,0.210,0.212,0.118,0.076,south-southeast,4.6,Yes
2022/07/17,04:50,0.146,0.137,0.217,0.208,0.214,0.116,0.075,south-southeast,5.2,Yes
2022/07/17,05:00,0.147,0.137,0.215,0.208,0.210,0.116,0.076,south-southeast,4.9,Yes
2022/07/17,05:10,0.146,0.138,0.215,0.209,0.212,0.117,0.075,south-southeast,3.8,Yes
2022/07/17,05:20,0.146,0.136,0.216,0.208,0.212,0.116,0.075,south-southeast,4.4,Yes
2022/07/17,05:30,0.149,0.137,0.213,0.207,0.210,0.117,0.076,south-southeast,4.5,Yes
2022/07/17,05:40,0.146,0.137,0.215,0.208,0.212,0.115,0.076,south-southeast,3.6,No
2022/07/17,05:50,0.146,0.137,0.214,0.208,0.211,0.115,0.075,south-southeast,3.0,No
2022/07/17,06:00,0.147,0.138,0.213,0.207,0.210,0.115,0.074,south-southeast,2.7,No
2022/07/17,06:10,0.146,0.137,0.216,0.208,0.213,0.116,0.075,south-southeast,2.1,No
2022/07/17,06:20,0.146,0.137,0.214,0.206,0.212,0.116,0.074,southeast,2.5,No
2022/07/17,06:30,0.147,0.136,0.214,0.208,0.210,0.115,0.075,south-southeast,2.1,No
2022/07/17,06:40,0.148,0.137,0.216,0.209,0.211,0.117,0.075,southeast,3.4,No
2022/07/17,06:50,0.146,0.136,0.215,0.207,0.212,0.115,0.074,south-southeast,2.5,No
2022/07/17,07:00,0.146,0.137,0.214,0.206,0.210,0.115,0.075,south-southeast,3.1,No
2022/07/17,07:10,0.148,0.137,0.217,0.209,0.209,0.116,0.075,south-southeast,2.4,No
2022/07/17,07:20,0.146,0.136,0.215,0.207,0.212,0.116,0.074,south,2.3,No
2022/07/17,07:30,0.145,0.136,0.213,0.205,0.210,0.116,0.075,south,1.9,No
2022/07/17,07:40,0.147,0.137,0.214,0.209,0.208,0.116,0.075,south,2.0,No
2022/07/17,07:50,0.147,0.136,0.215,0.208,0.212,0.116,0.075,south-southeast,1.8,No
2022/07/17,08:00,0.145,0.136,0.215,0.207,0.212,0.116,0.073,south,1.4,No
2022/07/17,08:10,0.146,0.136,0.212,0.205,0.210,0.116,0.074,south-southwest,1.8,No
2022/07/17,08:20,0.147,0.138,0.214,0.208,0.208,0.116,0.076,south,1.1,No
2022/07/17,08:30,0.146,0.137,0.216,0.209,0.209,0.117,0.074,south-southeast,0.9,No
2022/07/17,08:40,0.146,0.136,0.215,0.209,0.213,0.117,0.074,south-southeast,1.3,No
2022/07/17,08:50,0.146,0.137,0.214,0.206,0.214,0.115,0.074,south-southeast,1.7,No
2022/07/17,09:00,0.146,0.135,0.213,0.207,0.211,0.115,0.075,south-southeast,2.6,No
2022/07/17,09:10,0.147,0.136,0.213,0.207,0.211,0.116,0.074,south-southeast,1.9,No
2022/07/17,09:20,0.147,0.137,0.212,0.207,0.210,0.117,0.076,south,2.4,No
2022/07/17,09:30,0.146,0.138,0.214,0.207,0.210,0.117,0.075,south-southeast,2.8,No
2022/07/17,09:40,0.147,0.138,0.213,0.207,0.210,0.116,0.075,south,2.8,No
2022/07/17,09:50,0.146,0.137,0.214,0.207,0.210,0.116,0.075,south-southeast,2.8,Yes
2022/07/17,10:00,0.146,0.137,0.215,0.207,0.211,0.115,0.075,south-southeast,4.0,No
2022/07/17,10:10,0.146,0.137,0.215,0.207,0.211,0.116,0.075,south-southeast,5.6,No
2022/07/17,10:20,0.147,0.137,0.215,0.207,0.211,0.116,0.075,south-southeast,4.8,No
2022/07/17,10:30,0.145,0.138,0.215,0.210,0.210,0.117,0.075,south-southeast,5.8,No
2022/07/17,10:40,0.147,0.137,0.215,0.208,0.211,0.117,0.075,south-southeast,6.4,No
2022/07/17,10:50,0.146,0.136,0.216,0.208,0.213,0.115,0.075,south-southeast,7.2,No
2022/07/17,11:00,0.147,0.137,0.215,0.208,0.213,0.116,0.075,south-southeast,7.5,No
2022/07/17,11:10,0.145,0.137,0.217,0.208,0.211,0.116,0.075,south-southeast,7.5,No
2022/07/17,11:20,0.145,0.138,0.217,0.209,0.212,0.117,0.075,south-southeast,9.2,No
2022/07/17,11:30,0.146,0.137,0.216,0.209,0.212,0.117,0.075,south,9.0,No
2022/07/17,11:40,0.147,0.137,0.216,0.210,0.212,0.117,0.076,south,9.8,No
2022/07/17,11:50,0.145,0.138,0.216,0.209,0.212,0.118,0.075,south,8.4,No
2022/07/17,12:00,0.147,0.137,0.217,0.209,0.212,0.117,0.075,south,6.1,No
2022/07/17,12:10,0.147,0.138,0.218,0.208,0.212,0.116,0.075,south,6.7,No
2022/07/17,12:20,0.147,0.137,0.217,0.209,0.212,0.117,0.076,south,7.5,No
2022/07/17,12:30,0.148,0.137,0.216,0.209,0.212,0.118,0.075,south-southeast,6.6,No
2022/07/17,12:40,0.148,0.139,0.216,0.209,0.212,0.118,0.075,south,9.3,No
2022/07/17,12:50,0.147,0.138,0.217,0.210,0.212,0.117,0.076,south,9.5,No
2022/07/17,13:00,0.147,0.138,0.218,0.210,0.211,0.117,0.075,south-southeast,9.2,No
2022/07/17,13:10,0.147,0.139,0.217,0.210,0.212,0.117,0.075,south-southeast,9.0,No
2022/07/17,13:20,0.147,0.138,0.217,0.210,0.212,0.118,0.076,south,7.6,No
2022/07/17,13:30,0.148,0.139,0.218,0.210,0.212,0.117,0.076,south,7.9,No
2022/07/17,13:40,0.147,0.138,0.218,0.209,0.213,0.117,0.076,south,6.6,No
2022/07/17,13:50,0.149,0.139,0.218,0.210,0.214,0.117,0.076,south-southeast,8.4,No
2022/07/17,14:00,0.148,0.139,0.217,0.210,0.214,0.118,0.075,south,7.0,No
2022/07/17,14:10,0.148,0.137,0.217,0.211,0.212,0.117,0.076,south,7.1,No
2022/07/17,14:20,0.149,0.139,0.217,0.210,0.213,0.117,0.076,south,7.7,No
2022/07/17,14:30,0.148,0.138,0.217,0.209,0.213,0.117,0.076,south,7.9,No
2022/07/17,14:40,0.148,0.138,0.217,0.209,0.213,0.117,0.075,south,7.4,No
2022/07/17,14:50,0.148,0.138,0.217,0.210,0.212,0.117,0.074,south-southeast,7.7,No
2022/07/17,15:00,0.148,0.138,0.218,0.210,0.214,0.117,0.075,south-southeast,8.9,No
2022/07/17,15:10,0.147,0.139,0.217,0.210,0.214,0.117,0.076,south-southeast,8.1,No
2022/07/17,15:20,0.147,0.139,0.217,0.210,0.213,0.118,0.076,south,9.5,No
2022/07/17,15:30,0.148,0.139,0.216,0.210,0.212,0.117,0.075,south-southeast,9.8,No
2022/07/17,15:40,0.146,0.138,0.218,0.209,0.213,0.116,0.076,south,9.5,No
2022/07/17,15:50,0.147,0.137,0.217,0.209,0.213,0.117,0.075,south,9.0,No
2022/07/17,16:00,0.146,0.138,0.217,0.210,0.213,0.116,0.075,south-southeast,11.5,No
2022/07/17,16:10,0.146,0.138,0.217,0.209,0.213,0.117,0.076,south-southeast,10.1,No
2022/07/17,16:20,0.146,0.137,0.216,0.208,0.214,0.118,0.076,south,9.3,No
2022/07/17,16:30,0.147,0.138,0.217,0.213,0.213,0.117,0.076,south,8.5,No
2022/07/17,16:40,0.147,0.138,0.218,0.211,0.212,0.118,0.076,south,7.5,No
2022/07/17,16:50,0.147,0.139,0.219,0.211,0.213,0.117,0.074,south,7.6,No
2022/07/17,17:00,0.147,0.139,0.220,0.209,0.212,0.118,0.076,south,7.0,No
2022/07/17,17:10,0.148,0.138,0.218,0.210,0.212,0.119,0.076,south,6.4,No
2022/07/17,17:20,0.149,0.138,0.217,0.211,0.216,0.117,0.076,south,6.0,No
2022/07/17,17:30,0.148,0.139,0.220,0.212,0.213,0.117,0.075,south,6.5,No
2022/07/17,17:40,0.147,0.139,0.219,0.210,0.212,0.117,0.076,south,5.8,No
2022/07/17,17:50,0.147,0.137,0.218,0.209,0.212,0.118,0.076,south,5.8,No
2022/07/17,18:00,0.149,0.138,0.217,0.213,0.216,0.117,0.075,south-southeast,8.1,No
2022/07/17,18:10,0.149,0.139,0.220,0.211,0.216,0.117,0.076,south,7.7,No
2022/07/17,18:20,0.147,0.139,0.220,0.210,0.212,0.118,0.076,south,6.5,No
2022/07/17,18:30,0.148,0.137,0.217,0.210,0.213,0.118,0.076,south,6.0,No
2022/07/17,18:40,0.150,0.140,0.217,0.212,0.215,0.117,0.075,south,5.3,No
2022/07/17,18:50,0.148,0.141,0.220,0.210,0.214,0.117,0.075,south,5.5,No
2022/07/17,19:00,0.147,0.138,0.219,0.210,0.212,0.118,0.076,south,5.3,No
2022/07/17,19:10,0.147,0.137,0.217,0.213,0.213,0.119,0.076,south,5.1,No
2022/07/17,19:20,0.150,0.140,0.219,0.211,0.214,0.116,0.075,south,4.6,No
2022/07/17,19:30,0.147,0.139,0.220,0.210,0.214,0.117,0.076,south-southwest,4.0,No
2022/07/17,19:40,0.146,0.138,0.218,0.210,0.212,0.118,0.076,south-southwest,3.9,No
2022/07/17,19:50,0.150,0.139,0.218,0.212,0.216,0.117,0.075,southwest,2.6,No
2022/07/17,20:00,0.149,0.139,0.219,0.212,0.215,0.117,0.075,southwest,1.8,No
2022/07/17,20:10,0.148,0.138,0.218,0.210,0.213,0.118,0.076,west-southwest,1.4,No
2022/07/17,20:20,0.149,0.139,0.218,0.213,0.214,0.118,0.076,-,CALM,No
2022/07/17,20:30,0.149,0.139,0.219,0.211,0.215,0.117,0.076,north-northwest,1.8,No
2022/07/17,20:40,0.148,0.138,0.219,0.210,0.212,0.118,0.076,north,2.0,No
2022/07/17,20:50,0.148,0.140,0.218,0.212,0.212,0.119,0.075,north-northeast,0.8,No
2022/07/17,21:00,0.149,0.139,0.220,0.212,0.216,0.117,0.076,north,1.1,No
2022/07/17,21:10,0.150,0.139,0.219,0.210,0.214,0.118,0.076,north-northwest,1.1,No
2022/07/17,21:20,0.149,0.139,0.218,0.212,0.212,0.117,0.076,north-northwest,0.9,No
2022/07/17,21:30,0.149,0.138,0.220,0.211,0.214,0.117,0.076,northwest,0.6,No
2022/07/17,21:40,0.149,0.139,0.218,0.209,0.214,0.118,0.076,-,CALM,No
2022/07/17,21:50,0.147,0.140,0.218,0.213,0.211,0.117,0.076,west,0.8,No
2022/07/17,22:00,0.148,0.138,0.220,0.211,0.215,0.118,0.077,-,CALM,No
2022/07/17,22:10,0.150,0.139,0.219,0.210,0.214,0.118,0.076,-,CALM,No
2022/07/17,22:20,0.148,0.140,0.218,0.212,0.212,0.118,0.076,-,CALM,No
2022/07/17,22:30,0.149,0.139,0.220,0.212,0.215,0.118,0.076,-,CALM,No
2022/07/17,22:40,0.150,0.139,0.218,0.209,0.214,0.118,0.076,-,CALM,No
2022/07/17,22:50,0.148,0.139,0.219,0.213,0.212,0.118,0.075,north-northeast,1.3,No
2022/07/17,23:00,0.148,0.138,0.220,0.211,0.214,0.118,0.076,north,1.4,No
2022/07/17,23:10,0.149,0.140,0.218,0.211,0.215,0.118,0.076,north,1.7,No
2022/07/17,23:20,0.149,0.139,0.220,0.213,0.212,0.119,0.075,north-northeast,1.5,No
2022/07/17,23:30,0.149,0.138,0.219,0.211,0.215,0.119,0.077,north,1.2,No
2022/07/17,23:40,0.149,0.140,0.217,0.212,0.215,0.117,0.076,north-northeast,1.7,No
2022/07/17,23:50,0.148,0.138,0.220,0.212,0.212,0.119,0.076,north-northeast,1.1,No
